Simultaneous Nadir Overpasses (SNOs) Predictions

Prediction of SNOs between AQUA and METOP-B Satellite Orbit:

Table of predicted SNOs for the next 14.0 days since TLE Epoch: 10/19/2012
Index Date (AQUA) Time (AQUA) AQUA Lat,Lon Date (METOP-B) Time (METOP-B) METOP-B Lat,Lon Distance(km) Time Diff (sec)
1 10/21/2012 11:54:11 -73.29, 176.69 10/21/2012 11:53:02 -73.24, 174.69 64.55 69
2 10/21/2012 12:43:48 73.78, -16.71 10/21/2012 12:43:31 73.81, -16.69 2.94 17
3 10/21/2012 13:33:15 -73.86, 150.76 10/21/2012 13:34:11 -73.87, 150.80 1.86 56
4 10/24/2012 07:28:32 -73.67,-117.66 10/24/2012 07:27:19 -73.59,-118.13 17.34 73
5 10/24/2012 08:18:02 73.80, 49.70 10/24/2012 08:17:55 73.79, 49.69 0.51 7
6 10/24/2012 09:07:29 -73.87,-142.83 10/24/2012 09:08:35 -73.87,-142.81 0.89 66
7 10/27/2012 03:02:48 -73.74, -51.37 10/27/2012 03:01:41 -73.71, -51.42 3.20 67
8 10/27/2012 03:52:17 73.82, 116.09 10/27/2012 03:52:19 73.81, 116.15 1.91 2
9 10/27/2012 04:41:45 -73.94, -76.54 10/27/2012 04:42:58 -73.94, -76.21 10.00 73
10 10/29/2012 22:37:03 -73.76, 15.02 10/29/2012 22:36:04 -73.77, 15.13 3.74 59
11 10/29/2012 23:26:31 73.79,-177.42 10/29/2012 23:26:43 73.82,-177.43 2.46 12
12 10/30/2012 00:16:07 -74.32, -10.98 10/30/2012 00:17:15 -74.29, -8.92 62.21 68
13 11/01/2012 18:11:16 -73.74, 81.51 11/01/2012 18:10:28 -73.72, 81.42 3.51 48
14 11/01/2012 19:00:45 73.83,-111.05 11/01/2012 19:01:06 73.80,-111.05 2.68 21




NCC Satellite Simultaneous Nadir Overpasses (SNOs) Prediction Service
